UWE-2

Satellite information

Favourite Embed

Satellite Type and Status

PAYLOADIN ORBIT

Key statistics

Satellite UWE-2 at a glance.

Uptime

5826

Days in orbit

Revolutions

≈ 14.6

Per day

Orbit

SSO

Sun Synchronous Orbit

Inclination

98.4

Latest

Satellite identification and parameters

Extended collection of information and parameters for UWE-2.

Object identification

Identified? True

Debris? False

Object name: UWE-2

International designator: 2009-051D

Object number (NORAD): 35934

Object ID (CCSDS): 35934

Country: GERMANY (GER)

Current information (Y/N): Y

RCS size: SMALL

Orbital parameters

Period: 98.661 minutes

Inclination: 98.423 deg

SMA: 7072.808 km

Apoapsis: 699.825 km

Periapsis: 689.521 km

RAAN: 141.5324 deg

Eccentricy: 0.00072842

Argument of periapsis: 56.4107 deg

Mean anomaly: 303.7787 deg

Mean motion: 14.59536589 rev/day

Mean motion (dot): 0.00001399 rev/day2

B* drag term: 0.00030460538 1/REarth

Two-line elements (TLE)

Creation date: Sept. 4, 2025, 10:13 a.m.

Reference frame: TEME

Reference center: EARTH

Epoch: Sept. 4, 2025, 4:09 a.m. UTC

TLE line 0: 0 UWE-2

TLE line 1: 1 35934U 09051D 25247.17297721 .00001399 00000-0 30461-3 0 9994

TLE line 2: 2 35934 98.4230 141.5324 0007284 56.4107 303.7787 14.59536589847128

Live tracking on map

Real-time ground track for satellite UWE-2.

In-orbit conjunctions

There are no conjunctions computed for UWE-2, at the moment. Check back to stay up to date, as we update our databases every day.

Go to all conjunctions

Associated space launch

Oceansat-2 is an earth observation and oceanography satellite operated by ISRO.

UWE-2 was lifted into orbit during the mission ‘PSLV | Oceansat-2’, on board a PSLV space rocket.

The launch took place on Sept. 23, 2009, 6:21 a.m. from Satish Dhawan Space Centre First Launch Pad.

For more information about the launch, click the button.

Launch to space PSLV | Oceansat-2
PSLV | Oceansat-2

Agency: N/A

Status: Launch Successful

Launch date: Sept. 23, 2009, 6:21 a.m. UTC

Rocket: PSLV

Launch pad: Satish Dhawan Space Centre First Launch Pad

Location: Satish Dhawan Space Centre, India

...

Latest news about this satellite

There are no fresh news available about this satellite. Check back as we update our databases every day.


Newsletter sign-up

Weekly statistics, charts and insights to help you stay on top of the space industry.